FW0177 Weather Reports


Display with metric or nautical units.
time (UTC)temp
F
wind
direction
speed
MPH
gust
MPH
rain 1hr
in
rain 24hr
in
rain mn
in
humidity
%
barometer
mb
20190822163719 84 169 1.0 5.0 0.01 0.16 0.07 77 1017.4
20190822163231 84 196 3.0 5.0 0.01 0.16 0.07 79 1017.5
20190822162722 83 213 2.0 4.0 0.01 0.16 0.07 77 1017.6
20190822162214 83 238 2.0 3.0 0.01 0.16 0.07 81 1017.5
20190822161726 83 247 1.0 4.0 0.01 0.16 0.07 79 1017.5
20190822161221 83 247 1.0 4.0 0.00 0.15 0.06 79 1017.6
20190822160712 83 249 2.0 3.0 0.00 0.15 0.06 83 1017.6
20190822160224 82 269 1.0 4.0 0.01 0.15 0.06 83 1017.6
20190822155728 82 277 2.0 6.0 0.01 0.15 0.06 83 1017.7
20190822155219 82 248 0.0 0.0 0.01 0.15 0.06 83 1017.7
20190822154731 82 226 0.0 0.0 0.01 0.15 0.06 82 1017.7
20190822154222 82 213 0.0 0.0 0.01 0.15 0.06 85 1017.7
20190822153715 82 169 0.0 0.0 0.01 0.15 0.06 86 1017.8
20190822153230 82 176 0.0 3.0 0.01 0.15 0.06 87 1017.8
20190822152720 81 185 1.0 3.0 0.01 0.15 0.06 87 1017.7
20190822152232 81 242 2.0 4.0 0.01 0.15 0.06 88 1017.7
20190822151723 81 192 2.0 5.0 0.01 0.15 0.06 89 1017.7
20190822151215 81 216 2.0 4.0 0.01 0.15 0.06 88 1017.6
20190822150726 81 196 2.0 4.0 0.01 0.15 0.06 89 1017.6
20190822150217 81 196 1.0 3.0 0.00 0.14 0.05 89 1017.5
20190822145729 80 196 1.0 3.0 0.00 0.14 0.05 89 1017.5
20190822145224 80 196 1.0 3.0 0.00 0.14 0.05 90 1017.5
20190822144716 80 196 1.0 3.0 0.00 0.14 0.05 90 1017.4
20190822144228 80 196 2.0 3.0 0.00 0.14 0.05 90 1017.5
20190822143719 80 196 1.0 4.0 0.01 0.14 0.05 91 1017.5
20190822143232 80 196 2.0 5.0 0.01 0.14 0.05 91 1017.5
20190822142723 80 189 1.0 4.0 0.01 0.14 0.05 91 1017.5
20190822142214 80 189 2.0 4.0 0.01 0.14 0.05 91 1017.6
20190822141725 80 186 0.0 0.0 0.01 0.14 0.05 90 1017.6
20190822141221 79 189 0.0 0.0 0.01 0.14 0.05 91 1017.6
20190822140713 79 189 0.0 0.0 0.01 0.14 0.05 90 1017.5
20190822140226 79 121 0.0 0.0 0.01 0.14 0.05 91 1017.5
20190822135716 79 121 0.0 0.0 0.01 0.14 0.05 93 1017.6
20190822135228 78 121 0.0 0.0 0.01 0.14 0.05 94 1017.7
20190822134720 78 121 0.0 0.0 0.01 0.14 0.05 96 1017.8
20190822134231 77 121 0.0 0.0 0.01 0.14 0.05 96 1017.9
20190822133723 77 121 0.0 0.0 0.00 0.13 0.04 97 1017.9
20190822133218 76 121 0.0 0.0 0.00 0.13 0.04 97 1017.9
20190822132729 76 121 0.0 0.0 0.00 0.13 0.04 97 1017.9
20190822132221 76 121 0.0 0.0 0.00 0.13 0.04 97 1017.9
20190822131713 75 121 0.0 0.0 0.00 0.13 0.04 97 1017.9
20190822131223 75 121 0.0 0.0 0.00 0.13 0.04 97 1017.9
20190822130715 75 121 0.0 0.0 0.00 0.13 0.04 97 1017.8
20190822130227 74 121 0.0 0.0 0.01 0.13 0.04 97 1017.7
20190822125718 74 121 0.0 0.0 0.01 0.13 0.04 97 1017.7
20190822125213 74 121 0.0 0.0 0.01 0.13 0.04 97 1017.7
20190822124725 74 121 0.0 0.0 0.01 0.13 0.04 97 1017.7
20190822124217 74 121 0.0 0.0 0.01 0.13 0.04 97 1017.7
20190822123727 74 121 0.0 0.0 0.01 0.13 0.04 97 1017.7
20190822123218 74 121 0.0 0.0 0.01 0.13 0.04 97 1017.6
20190822122729 74 121 0.0 0.0 0.01 0.13 0.04 97 1017.6
20190822122221 73 121 0.0 0.0 0.01 0.13 0.04 97 1017.6
20190822121732 73 121 0.0 0.0 0.01 0.13 0.04 97 1017.5
20190822121224 73 121 0.0 0.0 0.01 0.13 0.04 97 1017.5
20190822120720 73 121 0.0 0.0 0.01 0.13 0.04 97 1017.4
20190822120232 73 121 0.0 0.0 0.00 0.12 0.03 97 1017.4
20190822115723 73 121 0.0 0.0 0.00 0.12 0.03 97 1017.4
20190822115215 73 121 0.0 0.0 0.00 0.12 0.03 97 1017.4
20190822114726 73 121 0.0 0.0 0.00 0.12 0.03 97 1017.3
20190822114219 73 121 0.0 0.0 0.00 0.12 0.03 97 1017.3
20190822113730 73 121 0.0 0.0 0.00 0.12 0.03 97 1017.2
20190822113222 73 121 0.0 0.0 0.00 0.12 0.03 97 1017.1
20190822112717 73 121 0.0 0.0 0.00 0.12 0.03 97 1017.1
20190822112228 73 121 0.0 0.0 0.00 0.12 0.03 97 1017.1
20190822111719 73 121 0.0 0.0 0.00 0.12 0.03 97 1017.0
20190822111231 73 121 0.0 0.0 0.00 0.12 0.03 97 1016.9
20190822110722 72 121 0.0 0.0 0.00 0.12 0.03 97 1016.8
20190822110214 72 121 0.0 0.0 0.00 0.12 0.03 97 1016.8
20190822105727 72 121 0.0 0.0 0.01 0.12 0.03 97 1016.8
20190822105218 73 121 0.0 0.0 0.01 0.12 0.03 97 1016.8
20190822104713 73 121 0.0 0.0 0.01 0.12 0.03 97 1016.6
20190822104225 73 121 0.0 0.0 0.01 0.12 0.03 97 1016.6
20190822103716 73 121 0.0 0.0 0.01 0.12 0.03 97 1016.6
20190822103227 73 121 0.0 0.0 0.01 0.12 0.03 97 1016.6
20190822102718 73 121 0.0 0.0 0.01 0.12 0.03 97 1016.6
20190822102230 73 121 0.0 0.0 0.01 0.12 0.03 97 1016.6
20190822101721 73 121 0.0 0.0 0.01 0.12 0.03 97 1016.6
20190822101232 73 121 0.0 0.0 0.01 0.12 0.03 97 1016.5
20190822100728 73 121 0.0 0.0 0.01 0.12 0.03 97 1016.5
20190822100219 73 121 0.0 0.0 0.01 0.12 0.03 97 1016.5
20190822095730 73 121 0.0 0.0 0.00 0.11 0.02 97 1016.4
20190822095222 73 121 0.0 0.0 0.00 0.11 0.02 97 1016.3
20190822094713 73 121 0.0 0.0 0.00 0.11 0.02 97 1016.3
20190822094224 73 121 0.0 0.0 0.00 0.11 0.02 97 1016.3
20190822093716 73 121 0.0 0.0 0.00 0.11 0.02 97 1016.1
20190822093227 73 121 0.0 0.0 0.00 0.11 0.02 97 1016.2
20190822092723 73 121 0.0 0.0 0.00 0.11 0.02 97 1016.2
20190822092214 73 121 0.0 0.0 0.01 0.11 0.02 97 1016.1
20190822091725 73 121 0.0 0.0 0.01 0.11 0.02 97 1016.2
20190822091217 73 121 0.0 0.0 0.01 0.11 0.02 97 1016.2
20190822090728 73 121 0.0 0.0 0.01 0.11 0.02 97 1016.2
20190822090219 73 121 0.0 0.0 0.01 0.11 0.02 97 1016.2
20190822085731 73 121 0.0 0.0 0.01 0.11 0.02 97 1016.2
20190822085222 73 121 0.0 0.0 0.01 0.11 0.02 97 1016.2
20190822084717 73 121 0.0 0.0 0.01 0.11 0.02 97 1016.2
20190822084229 73 121 0.0 0.0 0.01 0.11 0.02 97 1016.1
20190822083721 73 121 0.0 0.0 0.01 0.11 0.02 96 1016.2
20190822083213 73 121 0.0 0.0 0.01 0.11 0.02 96 1016.2
20190822082724 73 121 0.0 0.0 0.01 0.11 0.02 96 1016.2
20190822082215 73 121 0.0 0.0 0.00 0.10 0.01 96 1016.2
20190822081727 73 121 0.0 0.0 0.00 0.10 0.01 97 1016.3
20190822081218 73 121 0.0 0.0 0.00 0.10 0.01 97 1016.3
20190822080714 73 121 0.0 0.0 0.00 0.10 0.01 97 1016.2
20190822080225 73 121 0.0 0.0 0.00 0.10 0.01 97 1016.2
20190822075716 73 121 0.0 0.0 0.00 0.10 0.01 96 1016.3
20190822075228 73 121 0.0 0.0 0.00 0.10 0.01 96 1016.3
20190822074720 73 121 0.0 0.0 0.00 0.10 0.01 96 1016.2
20190822074228 73 121 0.0 0.0 0.00 0.10 0.01 97 1016.1
20190822073720 73 121 0.0 0.0 0.00 0.10 0.01 96 1016.1
20190822073231 73 121 0.0 0.0 0.00 0.10 0.01 96 1016.0
20190822072722 73 94 0.0 0.0 0.00 0.10 0.01 96 1016.1
20190822072217 73 94 0.0 0.0 0.00 0.10 0.01 96 1016.1
20190822071728 73 94 0.0 0.0 0.00 0.10 0.01 96 1016.1
20190822071219 73 94 0.0 0.0 0.00 0.10 0.01 96 1016.1
20190822070730 73 94 0.0 0.0 0.00 0.10 0.01 96 1016.1
20190822070221 73 94 0.0 0.0 0.00 0.10 0.01 96 1016.0
20190822065713 73 94 0.0 0.0 0.00 0.10 0.01 96 1016.1
20190822065225 73 94 0.0 0.0 0.00 0.10 0.01 96 1016.1
20190822064716 73 94 0.0 0.0 0.00 0.10 0.01 96 1016.1
20190822064232 73 94 0.0 0.0 0.00 0.10 0.01 96 1016.3
20190822063723 73 94 0.0 0.0 0.00 0.10 0.01 96 1016.4
20190822063214 73 94 0.0 0.0 0.00 0.10 0.01 96 1016.5
20190822062726 73 94 0.0 0.0 0.00 0.10 0.01 96 1016.4
20190822062217 73 94 0.0 0.0 0.01 0.10 0.01 96 1016.5
20190822061728 73 94 0.0 0.0 0.01 0.10 0.01 96 1016.5
20190822061220 73 94 0.0 0.0 0.01 0.10 0.01 96 1016.7
20190822060731 73 94 0.0 0.0 0.01 0.10 0.01 96 1016.8
20190822060226 73 94 0.0 0.0 0.01 0.10 0.01 96 1016.8
20190822055717 74 93 0.0 0.0 0.01 0.10 0.01 96 1016.8
20190822055229 74 93 0.0 0.0 0.01 0.10 0.01 96 1016.8
20190822054720 74 93 0.0 0.0 0.01 0.10 0.01 96 1016.9
20190822054231 74 93 0.0 0.0 0.01 0.10 0.01 96 1017.0
20190822053723 74 93 0.0 0.0 0.01 0.10 0.01 96 1017.1
20190822053214 74 93 0.0 0.0 0.01 0.10 0.01 96 1017.2
20190822052725 74 93 0.0 0.0 0.01 0.10 0.01 96 1017.2
20190822052220 74 93 0.0 0.0 0.00 0.09 0.00 96 1017.3
20190822051732 74 93 0.0 0.0 0.00 0.09 0.00 96 1017.3
20190822051224 74 93 0.0 0.0 0.00 0.09 0.00 96 1017.3
20190822050715 74 93 0.0 0.0 0.00 0.09 0.00 96 1017.2
20190822050227 74 93 0.0 0.0 0.00 0.09 0.00 96 1017.3
20190822045718 74 93 0.0 0.0 0.00 0.09 0.00 96 1017.4
20190822045230 74 93 0.0 0.0 0.00 0.09 0.09 96 1017.3
20190822044721 74 93 0.0 0.0 0.00 0.09 0.09 96 1017.4
20190822044216 74 93 0.0 0.0 0.00 0.09 0.09 96 1017.3
20190822043728 74 93 0.0 0.0 0.00 0.09 0.09 96 1017.3
20190822043219 74 93 0.0 0.0 0.00 0.09 0.09 96 1017.3
20190822042731 74 93 0.0 0.0 0.00 0.09 0.09 96 1017.3
20190822042222 74 211 0.0 0.0 0.00 0.09 0.09 96 1017.3
20190822041714 74 211 0.0 0.0 0.00 0.09 0.09 96 1017.3
20190822041226 74 212 0.0 0.0 0.00 0.09 0.09 96 1017.2
20190822040716 74 211 0.0 0.0 0.00 0.09 0.09 95 1017.2
20190822040228 74 211 0.0 0.0 0.00 0.09 0.09 95 1017.1
20190822035723 74 211 0.0 0.0 0.00 0.09 0.09 95 1017.1
20190822035215 74 211 0.0 0.0 0.00 0.09 0.09 96 1017.0
20190822034727 74 212 0.0 0.0 0.00 0.09 0.09 95 1017.1
20190822034218 74 211 0.0 0.0 0.00 0.09 0.09 95 1017.1
20190822033730 74 211 0.0 0.0 0.00 0.09 0.09 95 1017.0
20190822033221 74 211 0.0 0.0 0.00 0.09 0.09 95 1017.0
20190822032732 74 211 0.0 0.0 0.00 0.09 0.09 95 1017.0
20190822032224 74 211 0.0 0.0 0.01 0.09 0.09 95 1016.8
20190822031720 75 211 0.0 0.0 0.01 0.09 0.09 95 1016.8
20190822031231 75 211 0.0 0.0 0.01 0.09 0.09 94 1016.8
20190822030723 75 211 0.0 0.0 0.01 0.09 0.09 94 1016.8
20190822030215 75 211 0.0 0.0 0.01 0.09 0.09 94 1016.9
20190822025726 75 211 0.0 0.0 0.01 0.09 0.09 94 1016.9
20190822025218 75 211 0.0 0.0 0.01 0.09 0.09 94 1016.9
20190822024728 75 211 0.0 0.0 0.01 0.09 0.09 94 1017.0
20190822024219 75 212 0.0 0.0 0.01 0.09 0.09 94 1016.9
20190822023715 75 211 0.0 0.0 0.01 0.09 0.09 94 1017.0
20190822023226 75 212 0.0 0.0 0.01 0.09 0.09 94 1017.0
20190822022717 75 211 0.0 0.0 0.01 0.09 0.09 94 1017.0
20190822022229 75 211 0.0 0.0 0.00 0.08 0.08 94 1017.0
20190822021721 75 211 0.0 0.0 0.00 0.08 0.08 94 1017.0
20190822021233 75 211 0.0 0.0 0.00 0.08 0.08 94 1016.9
20190822020724 75 211 0.0 0.0 0.00 0.08 0.08 93 1016.9
20190822020216 75 211 0.0 0.0 0.00 0.08 0.08 93 1016.9
20190822015731 75 211 0.0 0.0 0.00 0.08 0.08 93 1016.8
20190822015223 76 211 0.0 0.0 0.00 0.08 0.08 93 1016.9
20190822014715 76 211 0.0 0.0 0.00 0.08 0.08 93 1016.9
20190822014226 76 211 0.0 0.0 0.00 0.08 0.08 92 1016.9
20190822013717 76 211 0.0 0.0 0.00 0.08 0.08 92 1016.9
20190822013230 76 212 0.0 0.0 0.00 0.08 0.08 92 1017.0
20190822012720 76 211 0.0 0.0 0.00 0.08 0.08 91 1016.9
20190822012231 77 211 0.0 0.0 0.00 0.08 0.08 91 1016.9
20190822011726 77 212 0.0 0.0 0.00 0.08 0.08 89 1016.9
20190822011218 77 212 0.0 0.0 0.00 0.08 0.08 89 1016.9
20190822010730 78 212 0.0 0.0 0.00 0.08 0.08 89 1016.9
20190822010221 78 212 0.0 0.0 0.00 0.08 0.08 89 1016.8
20190822005713 78 212 0.0 0.0 0.00 0.08 0.08 87 1016.6
20190822005225 78 212 0.0 0.0 0.00 0.08 0.08 87 1016.6
20190822004716 78 212 0.0 0.0 0.00 0.08 0.08 87 1016.6
20190822004227 78 212 0.0 0.0 0.00 0.08 0.08 87 1016.5
20190822003722 78 212 0.0 0.0 0.00 0.08 0.08 87 1016.5
20190822003214 79 212 0.0 0.0 0.00 0.08 0.08 87 1016.6
20190822002725 79 212 0.0 0.0 0.00 0.08 0.08 85 1016.6
20190822002218 79 212 0.0 0.0 0.00 0.08 0.08 86 1016.5
20190822001729 79 212 0.0 0.0 0.00 0.08 0.08 86 1016.5
20190822001221 79 212 0.0 0.0 0.00 0.08 0.08 86 1016.6
20190822000713 79 212 0.0 3.0 0.00 0.08 0.08 86 1016.5
20190822000225 79 212 2.0 5.0 0.00 0.08 0.08 86 1016.4
20190821235720 79 212 3.0 5.0 0.00 0.08 0.08 85 1016.4
20190821235231 79 171 0.0 0.0 0.01 0.08 0.08 85 1016.2
20190821234723 79 171 0.0 2.0 0.01 0.08 0.08 85 1016.2
20190821234214 79 171 0.0 3.0 0.01 0.08 0.08 86 1016.1
20190821233726 79 171 1.0 3.0 0.01 0.08 0.08 85 1016.0
20190821233217 80 171 1.0 3.0 0.01 0.08 0.08 86 1015.8
20190821232729 80 138 1.0 4.0 0.01 0.08 0.08 85 1015.9
20190821232221 80 138 1.0 5.0 0.01 0.08 0.08 84 1016.0
20190821231716 80 207 2.0 5.0 0.01 0.08 0.08 83 1016.1
20190821231227 80 197 3.0 4.0 0.01 0.08 0.08 84 1016.0
20190821230719 80 197 2.0 4.0 0.01 0.08 0.08 84 1016.1
20190821230231 80 197 2.0 4.0 0.01 0.08 0.08 84 1016.1
20190821225723 81 197 3.0 5.0 0.01 0.08 0.08 83 1016.3
20190821225214 81 215 1.0 4.0 0.00 0.07 0.07 85 1016.3
20190821224726 81 215 2.0 5.0 0.00 0.07 0.07 84 1016.3
20190821224217 81 215 2.0 6.0 0.01 0.07 0.07 84 1016.4
20190821223713 81 213 3.0 6.0 0.01 0.07 0.07 83 1016.4
20190821223224 81 194 3.0 4.0 0.01 0.07 0.07 83 1016.4
20190821222716 81 194 2.0 4.0 0.01 0.07 0.07 83 1016.4
20190821222227 81 198 3.0 4.0 0.01 0.07 0.07 82 1016.4
20190821221719 81 198 3.0 5.0 0.01 0.07 0.07 83 1016.5
20190821221231 82 198 3.0 5.0 0.01 0.07 0.07 81 1016.5
20190821220722 82 200 3.0 5.0 0.01 0.07 0.07 78 1016.6
20190821220215 82 196 3.0 6.0 0.01 0.07 0.07 77 1016.6
20190821215726 81 196 3.0 6.0 0.01 0.07 0.07 76 1016.7
20190821215222 81 184 3.0 6.0 0.01 0.07 0.07 76 1016.6
20190821214713 82 216 3.0 6.0 0.01 0.07 0.07 76 1016.7
20190821214224 82 210 3.0 8.0 0.00 0.06 0.06 78 1016.7
20190821213716 82 244 4.0 8.0 0.01 0.06 0.06 76 1016.7
20190821213227 82 220 4.0 7.0 0.01 0.06 0.06 76 1016.7
20190821212719 82 220 4.0 7.0 0.01 0.06 0.06 77 1016.7
20190821212231 82 211 3.0 6.0 0.01 0.06 0.06 78 1016.7
20190821211722 81 202 1.0 5.0 0.01 0.06 0.06 83 1016.8
20190821211217 80 208 1.0 5.0 0.01 0.06 0.06 86 1016.9
20190821210729 80 189 2.0 5.0 0.01 0.06 0.06 85 1016.9
20190821210221 79 215 3.0 5.0 0.02 0.06 0.06 86 1016.9
20190821205713 79 134 2.0 4.0 0.02 0.06 0.06 89 1016.9
20190821205224 78 195 1.0 4.0 0.02 0.06 0.06 91 1017.0
20190821204715 78 195 3.0 5.0 0.02 0.06 0.06 89 1017.1
20190821204226 78 204 4.0 5.0 0.03 0.06 0.06 89 1017.2
20190821203717 78 179 2.0 5.0 0.02 0.05 0.05 90 1017.4
20190821203213 78 199 2.0 6.0 0.03 0.05 0.05 91 1017.4
20190821202725 78 202 2.0 8.0 0.03 0.05 0.05 92 1017.5
20190821202216 77 205 4.0 8.0 0.04 0.05 0.05 92 1017.4
20190821201728 77 202 4.0 8.0 0.05 0.05 0.05 92 1017.6
20190821201219 77 223 2.0 8.0 0.05 0.05 0.05 93 1017.5
20190821200730 77 202 5.0 9.0 0.05 0.05 0.05 93 1017.5
20190821200222 77 169 4.0 9.0 0.04 0.04 0.04 94 1017.6
20190821195713 77 200 4.0 7.0 0.04 0.04 0.04 94 1017.6
20190821195229 77 198 5.0 7.0 0.04 0.04 0.04 94 1017.7
20190821194721 77 207 4.0 7.0 0.04 0.04 0.04 94 1017.7
20190821194213 76 183 2.0 6.0 0.03 0.03 0.03 93 1017.7
20190821193724 76 173 2.0 10.0 0.03 0.03 0.03 92 1017.7
20190821193216 76 205 6.0 17.0 0.02 0.02 0.02 90 1017.7
20190821192728 78 190 6.0 17.0 0.02 0.02 0.02 88 1017.8
20190821192219 80 211 7.0 20.0 0.01 0.01 0.01 82 1017.9
20190821191730 83 205 12.0 20.0 0.00 0.00 0.00 76 1017.9
20190821191226 86 194 11.0 20.0 0.00 0.00 0.00 69 1017.8
20190821190719 87 136 3.0 11.0 0.00 0.00 0.00 68 1017.5
20190821190230 88 175 5.0 8.0 0.00 0.00 0.00 67 1017.5
20190821185722 88 194 4.0 7.0 0.00 0.00 0.00 65 1017.5
20190821185213 87 285 3.0 7.0 0.00 0.00 0.00 72 1017.5
20190821184724 87 294 4.0 8.0 0.00 0.00 0.00 70 1017.6
20190821184217 86 244 5.0 11.0 0.00 0.00 0.00 70 1017.7
20190821183728 87 207 6.0 11.0 0.00 0.00 0.00 69 1017.7
20190821183223 87 196 6.0 10.0 0.00 0.00 0.00 67 1017.7
20190821182714 87 178 4.0 11.0 0.00 0.00 0.00 66 1017.8
20190821182226 88 206 6.0 11.0 0.00 0.00 0.00 65 1017.9
20190821181717 88 174 2.0 8.0 0.00 0.00 0.00 65 1018.0
20190821181229 88 201 3.0 7.0 0.00 0.00 0.00 66 1018.0
20190821180720 88 203 5.0 10.0 0.00 0.00 0.00 65 1018.0
20190821180212 88 179 4.0 10.0 0.00 0.00 0.00 65 1018.1
20190821175724 88 187 5.0 9.0 0.00 0.00 0.00 66 1018.2
20190821175219 87 140 2.0 9.0 0.00 0.00 0.00 66 1018.1
20190821174731 87 198 4.0 9.0 0.00 0.00 0.00 66 1018.1
20190821174224 87 198 3.0 9.0 0.00 0.00 0.00 66 1018.2
20190821173715 87 198 7.0 9.0 0.00 0.00 0.00 67 1018.3
20190821173226 87 186 3.0 7.0 0.00 0.00 0.00 67 1018.2
20190821172717 87 180 2.0 9.0 0.00 0.00 0.00 68 1018.3
20190821172229 87 188 1.0 9.0 0.00 0.00 0.00 68 1018.3
20190821171720 87 176 3.0 6.0 0.00 0.00 0.00 66 1018.4
20190821171215 87 57 3.0 7.0 0.00 0.00 0.00 66 1018.4
20190821170728 87 149 3.0 7.0 0.00 0.00 0.00 66 1018.5
20190821170219 87 215 2.0 7.0 0.00 0.00 0.00 67 1018.6
20190821165731 87 254 2.0 8.0 0.00 0.00 0.00 69 1018.7
20190821165222 87 209 3.0 6.0 0.00 0.00 0.00 69 1018.8
20190821164714 86 82 3.0 7.0 0.00 0.00 0.00 67 1018.9
20190821164225 86 159 3.0 10.0 0.00 0.00 0.00 68 1018.9